Theta_e
292 293 293 293 290 289 290 289 289 290 290 290 287 286 290 292 287 287 295 297 295 296 298 299 300 300 300 300 300 301 302 302 303 303 302 302 301 301 301 301 301 301 300 300 300 301 301 301 301 301 302 303 303 303 303 304 304 304 305 304 304 304 304 304 304 305 305 305 304 304 304 303 303 302 302 301 301 301 301 300 301 299 299 299 299 299 300
293 295 295 294 294 294 296 295 295 294 290 289 292 292 294 292 291 297 297 297 296 298 299 300 301 302 301 301 302 302 301 301 302 302 301 300 300 300 300 300 300 300 300 300 299 299 299 299 300 301 301 302 302 302 302 302 303 303 303 303 303 303 303 303 304 303 303 303 302 302 302 302 302 302 301 301 301 300 300 300 299 299 298 298 298 298 298
290 293 295 296 295 294 291 293 293 294 294 295 294 294 295 298 297 297 296 295 293 298 301 300 301 301 301 301 300 300 301 302 301 300 299 299 299 299 300 300 299 299 298 298 298 297 297 298 298 300 301 301 301 301 301 302 302 302 302 301 301 301 301 302 302 302 302 302 301 301 301 301 301 301 301 300 300 299 299 299 298 298 298 297 297 298 297
284 291 292 293 293 292 290 289 290 291 291 291 292 291 294 296 294 295 295 291 291 296 300 300 300 300 299 298 299 300 300 301 299 298 298 298 298 298 298 298 297 297 297 297 297 297 297 298 299 299 300 301 301 300 301 301 301 301 301 300 299 299 299 299 299 299 299 299 300 300 300 300 300 300 300 299 299 298 298 298 298 298 297 296 296 296 297
282 290 290 290 289 287 284 283 289 292 292 293 293 295 296 299 299 293 290 292 297 297 299 297 297 298 298 299 299 300 300 299 298 298 298 298 298 297 296 296 297 297 297 296 296 296 297 299 300 300 301 300 300 300 300 301 301 301 300 299 298 298 298 298 297 298 297 297 297 297 298 298 299 299 299 299 298 297 297 298 297 296 296 296 295 296 296
284 288 287 285 282 279 282 292 295 295 291 292 291 290 293 293 297 296 299 297 298 298 298 297 296 297 298 299 301 302 299 297 297 297 297 297 296 296 296 297 296 296 296 296 297 297 298 299 300 301 301 301 300 301 301 301 300 300 299 299 298 298 297 297 297 296 296 296 296 296 297 297 297 297 297 297 297 297 297 297 296 296 295 295 295 294 295
283 284 284 281 277 278 292 296 297 296 295 294 292 293 294 295 297 297 296 297 297 298 299 298 298 299 300 301 301 300 300 299 297 296 296 295 295 296 296 296 295 295 296 296 296 297 298 298 299 300 300 300 300 300 300 299 299 299 298 298 297 297 296 296 296 295 295 294 295 295 295 295 295 295 295 295 295 296 295 295 295 294 294 294 294 294 294
283 282 281 276 275 288 294 294 296 298 296 295 295 292 294 296 297 297 296 297 298 298 296 296 296 296 296 296 296 297 298 298 297 296 295 295 296 296 296 295 295 295 296 296 296 296 298 298 298 298 298 299 299 299 299 299 298 297 297 296 296 296 295 294 294 294 293 293 293 293 294 294 294 293 293 293 293 294 295 294 294 294 294 294 294 293 294
282 281 283 283 289 290 291 290 291 290 288 290 288 286 289 295 298 298 296 295 295 295 294 295 296 296 296 293 293 297 297 297 298 297 296 297 297 296 296 296 296 297 297 297 297 297 297 297 297 297 297 297 298 298 298 298 297 296 296 295 295 295 295 294 294 293 293 293 293 292 292 292 292 292 292 292 292 293 292 292 293 293 293 293 293 293 293
282 283 282 282 282 280 286 293 295 297 298 297 296 292 288 294 296 298 296 294 294 294 294 295 296 297 293 289 290 295 297 298 298 298 298 298 297 297 296 297 297 297 297 298 298 297 297 297 297 297 297 298 297 297 297 297 296 295 294 294 295 295 294 294 294 293 293 293 292 292 292 291 291 291 291 292 291 292 290 290 291 292 293 292 292 293 293
282 281 280 279 278 280 286 292 295 298 299 298 296 290 285 293 295 297 296 294 294 294 294 295 296 294 288 287 290 295 297 298 298 297 298 298 298 297 297 297 297 297 297 297 297 297 296 296 296 297 297 297 297 296 296 295 295 294 293 293 294 294 294 294 294 293 293 293 292 291 291 291 291 291 291 291 291 290 290 290 290 291 293 291 291 291 292
279 280 280 280 280 283 289 294 296 298 299 298 292 282 284 292 295 296 296 294 294 295 296 297 296 293 287 288 291 296 297 298 298 297 296 297 297 297 297 297 297 298 298 298 296 295 295 295 296 297 297 297 297 296 295 295 294 294 293 294 294 294 294 294 294 294 293 293 292 292 291 291 291 291 291 291 290 290 289 289 289 290 290 290 289 290 291
282 283 283 283 284 287 293 297 299 298 299 292 283 281 285 294 296 297 296 295 296 296 296 297 293 291 294 295 296 297 297 297 297 298 298 297 298 297 297 297 297 297 296 296 296 295 296 296 296 296 296 295 295 295 295 294 294 294 294 295 295 294 294 294 294 293 293 292 292 292 291 291 291 291 290 290 289 289 289 289 289 290 290 290 289 289 290
282 280 282 284 285 289 296 298 301 301 294 283 283 287 294 296 296 297 297 295 296 297 297 292 292 294 296 296 296 297 297 297 297 298 298 298 298 298 297 297 296 295 294 294 294 295 296 297 297 296 296 295 294 294 294 294 294 295 296 295 295 294 294 293 293 293 293 293 293 293 292 291 290 289 290 290 290 289 288 289 289 289 289 289 289 289 289
281 280 282 284 283 290 298 298 297 298 287 285 289 292 296 297 296 296 295 296 296 296 292 294 294 294 295 295 296 296 296 296 296 296 296 296 296 296 296 295 295 295 293 294 295 295 296 296 296 296 295 294 294 293 293 293 294 295 295 295 295 294 294 294 294 293 293 293 293 293 292 291 289 288 289 289 289 289 288 289 289 289 289 289 289 288 289
282 281 281 283 288 292 297 296 288 292 292 295 295 296 293 296 296 295 295 296 296 295 294 294 294 294 295 295 296 296 296 296 296 296 296 296 296 296 296 296 295 295 294 294 295 295 295 296 296 296 295 294 294 293 293 293 294 294 294 294 294 294 293 293 293 294 294 293 292 291 291 290 289 288 288 288 288 288 288 288 288 288 288 289 288 288 288
284 283 285 291 293 294 294 294 292 294 295 296 297 296 295 294 295 297 296 295 294 295 295 295 294 294 295 295 296 295 295 296 296 296 296 296 295 295 295 295 295 295 294 294 294 294 294 295 295 295 295 294 293 292 293 293 294 294 293 294 293 292 292 292 293 293 292 292 291 290 289 288 288 288 288 288 287 287 287 287 287 288 288 288 288 288 287
294 295 294 294 293 293 294 295 295 295 295 296 296 295 294 295 296 297 295 294 294 295 296 294 294 295 295 295 295 295 296 296 296 296 296 295 295 295 295 295 295 294 293 292 291 291 292 294 294 293 293 294 293 293 293 294 293 293 293 293 292 292 291 292 292 292 291 290 290 289 289 289 288 287 287 287 287 287 286 287 286 287 287 288 288 287 287
290 285 293 292 291 292 294 294 295 296 296 295 296 295 295 295 295 295 296 295 295 295 296 295 295 295 295 295 295 296 296 295 295 295 294 294 294 294 294 294 294 293 292 291 291 292 292 291 292 292 292 292 292 292 292 292 292 292 293 293 293 291 291 291 290 290 290 289 289 288 288 288 289 289 287 285 286 287 285 285 286 286 286 286 286 286 287
287 289 293 293 293 293 294 295 293 293 294 294 295 295 295 295 296 296 296 296 295 296 295 296 295 295 295 295 295 295 295 295 295 294 294 294 295 295 295 294 293 292 291 291 291 292 292 292 292 292 292 292 293 292 292 293 291 291 291 291 291 290 290 290 290 290 290 289 289 287 286 286 286 286 286 286 285 285 284 285 285 286 285 286 285 285 285
292 294 294 293 294 294 293 294 294 294 294 294 294 295 295 295 295 295 296 296 296 296 296 296 296 295 295 296 295 295 295 295 294 294 294 295 294 294 293 293 293 292 291 291 291 291 291 291 291 291 291 291 292 292 292 292 292 291 290 290 291 289 289 289 290 289 290 288 287 286 285 285 285 285 286 286 286 285 284 283 284 284 286 285 285 284 284
287 288 290 293 288 287 291 292 293 294 295 295 294 294 294 294 294 295 295 295 296 297 296 296 296 295 295 296 295 295 295 294 294 294 294 294 294 293 292 292 291 291 292 291 291 290 289 290 291 291 290 290 292 292 292 292 292 292 291 290 288 288 289 289 289 289 289 289 289 288 286 286 285 286 287 289 287 285 285 289 289 288 288 285 285 285 286
287 293 294 294 294 293 294 294 294 295 295 295 294 293 294 294 295 295 295 294 294 295 296 297 296 295 295 295 295 294 294 294 295 295 294 293 292 291 292 291 291 291 291 292 291 290 290 291 291 290 289 290 291 291 292 292 292 291 291 290 290 288 288 289 289 290 289 288 287 288 286 286 286 285 286 285 287 289 289 289 289 288 288 288 288 289 287
295 296 295 295 294 292 293 295 295 295 296 295 294 295 295 295 295 296 295 295 294 294 295 296 296 295 295 295 295 293 293 294 294 294 294 293 292 292 292 291 291 291 291 290 290 290 290 291 290 290 290 290 290 291 292 292 291 291 290 290 288 288 287 287 289 289 288 288 288 288 288 287 285 286 286 286 288 289 289 289 289 288 288 288 288 289 289
293 296 296 295 295 294 295 296 297 297 297 296 295 295 295 295 296 296 295 295 295 295 294 294 295 296 295 294 293 293 292 293 293 292 292 292 291 291 291 291 291 291 291 290 290 289 290 290 290 290 291 290 291 291 291 291 292 291 290 290 289 288 287 287 287 288 288 288 287 287 288 287 287 286 286 284 284 286 288 289 289 289 289 289 289 289 290
297 296 296 296 295 294 295 296 295 296 296 296 296 296 297 297 297 296 296 296 295 295 295 295 295 295 295 293 293 293 292 291 291 291 291 291 291 291 291 291 291 291 290 290 290 290 289 289 290 290 290 291 291 291 292 291 291 290 289 289 289 289 288 288 288 289 289 289 288 287 287 286 286 286 285 286 284 284 285 285 287 288 288 289 289 288 290
297 297 296 293 292 292 294 293 292 296 296 297 296 296 297 297 297 297 296 296 295 296 295 295 295 295 295 294 294 293 292 291 291 291 291 291 291 291 291 292 291 290 290 290 289 289 289 290 290 290 290 290 291 291 291 291 291 290 289 289 289 288 287 288 289 289 287 287 287 287 287 288 286 286 287 285 284 284 285 285 285 285 285 286 287 288 288
296 297 297 292 290 291 292 295 296 296 296 296 296 296 296 297 296 295 295 294 294 294 295 295 295 294 293 292 292 291 291 291 290 290 291 291 290 290 290 290 290 289 289 289 289 289 290 289 289 290 290 290 291 291 291 290 290 289 289 289 289 287 289 288 288 288 286 288 288 288 287 287 287 286 285 285 285 284 285 285 285 285 284 284 284 288 288
295 295 295 296 295 295 296 296 296 296 295 296 297 296 296 295 294 294 293 293 294 294 294 295 294 293 292 291 291 290 290 289 289 290 290 290 290 290 290 290 289 288 288 288 288 288 289 289 289 290 290 290 291 291 291 290 289 289 288 288 288 287 287 287 286 287 286 287 288 287 286 285 285 286 285 284 284 285 284 284 284 283 283 283 284 286 286
295 295 295 295 295 295 295 294 294 295 295 295 295 294 294 294 293 293 293 293 294 294 294 294 292 291 291 291 290 290 290 290 290 290 289 289 289 289 289 288 289 288 288 288 288 287 289 289 289 290 290 291 292 292 291 289 289 290 289 288 287 286 286 287 287 288 287 287 286 285 285 285 285 285 284 284 284 283 283 284 284 283 284 283 285 282 283
296 296 295 295 295 295 295 294 295 295 295 294 294 293 293 293 292 292 292 294 294 293 292 292 290 290 290 290 290 290 290 290 289 289 289 289 289 289 289 289 288 287 288 287 287 288 288 288 289 290 290 291 292 291 290 290 289 289 289 287 287 285 285 285 286 288 286 286 286 286 286 285 284 283 283 283 283 283 282 282 283 283 282 282 282 283 284
295 295 295 295 295 294 294 295 295 295 295 295 294 293 292 292 291 291 292 292 292 291 291 290 290 290 290 290 290 290 289 289 289 288 288 288 288 287 286 288 289 287 288 288 288 288 288 289 290 290 290 292 292 291 290 290 288 289 290 288 287 287 286 286 287 287 286 284 285 286 284 286 285 284 283 283 284 286 283 282 284 283 282 284 286 284 284
294 293 292 293 294 294 294 294 294 294 294 294 294 294 294 293 293 293 293 292 291 291 291 290 290 290 290 290 290 289 288 288 289 288 288 287 285 284 285 288 289 289 289 289 289 289 289 290 290 289 290 291 292 291 291 290 288 288 288 287 287 286 286 286 285 286 286 285 285 286 285 284 284 285 284 284 283 282 282 282 283 284 283 282 282 283 283
294 293 293 294 294 293 293 293 295 294 295 295 295 294 294 293 293 293 292 292 292 291 291 291 290 290 290 289 288 287 287 287 287 286 286 285 284 285 287 290 290 290 290 289 289 289 289 289 289 289 290 290 291 290 290 290 289 288 288 286 286 286 287 286 285 285 284 285 286 286 284 284 285 284 284 284 283 282 283 285 284 284 282 284 284 284 284
296 295 296 296 296 295 295 295 295 295 294 293 294 294 294 294 293 292 291 291 291 291 291 291 290 289 288 287 287 287 287 287 285 285 284 285 286 286 288 290 289 289 289 289 290 290 290 289 289 289 289 289 290 289 289 289 288 288 288 287 286 287 286 286 286 285 285 285 284 284 283 284 283 284 284 283 284 282 283 284 284 284 284 284 284 284 285
297 296 296 296 296 295 294 294 295 295 295 294 294 293 293 293 291 290 290 290 290 290 290 289 288 288 288 287 287 287 287 285 283 283 283 285 286 286 288 290 289 289 288 288 289 290 289 289 287 287 289 288 287 287 287 287 288 287 288 287 285 286 286 286 286 285 284 284 284 284 283 284 283 283 283 283 284 285 284 284 284 283 286 285 283 283 284
297 296 295 295 296 296 296 295 295 295 294 293 293 292 291 291 291 290 291 290 290 290 289 289 288 288 288 288 288 287 286 285 284 284 284 283 285 287 289 288 289 288 288 288 289 288 288 289 286 286 287 287 287 286 285 285 286 286 287 286 286 286 286 286 287 285 285 283 283 284 284 283 282 283 283 282 283 282 282 283 282 282 284 284 283 283 284
297 297 296 296 296 296 296 296 296 294 293 291 291 291 291 291 291 291 291 290 289 289 289 289 289 288 287 287 287 286 285 284 283 283 281 282 287 288 287 287 287 286 286 287 288 288 288 288 285 287 287 287 287 286 285 285 286 285 287 285 285 285 285 285 286 285 285 284 283 283 282 282 282 282 282 282 282 283 283 282 283 282 282 282 281 283 283
296 297 297 297 297 296 296 296 296 294 293 291 291 291 291 291 291 290 290 289 289 289 289 288 287 287 287 287 287 287 286 284 283 282 283 284 286 289 287 288 289 289 290 289 290 288 289 287 286 289 288 288 288 288 285 285 286 286 287 286 287 285 285 284 284 285 284 284 283 283 283 283 282 282 282 282 282 283 284 284 283 283 284 282 282 283 285
296 296 296 296 295 294 295 294 293 292 292 292 291 290 291 291 291 290 289 289 288 289 289 288 287 287 286 287 287 287 286 285 284 284 284 284 285 286 286 287 288 290 290 289 290 288 287 286 287 289 289 289 290 288 286 285 286 285 285 285 285 285 284 285 284 284 285 284 284 283 281 283 283 282 282 282 282 283 283 283 283 282 282 283 284 283 284
295 295 295 294 292 291 291 291 291 292 292 292 292 291 291 291 291 290 289 288 288 288 289 288 288 287 287 288 288 288 286 285 285 286 285 285 285 284 286 286 287 289 291 291 290 288 287 287 288 289 289 289 290 288 285 286 285 286 286 286 285 284 284 283 284 284 283 284 284 283 283 282 283 282 282 282 282 282 282 282 282 282 281 283 283 283 283
295 294 293 293 291 291 291 291 291 292 292 292 291 291 291 291 291 290 289 289 288 288 288 288 288 288 287 288 287 287 286 286 285 285 286 287 286 284 286 286 286 289 289 290 289 288 286 287 287 287 287 288 289 287 286 285 285 286 286 286 284 284 285 283 283 284 283 282 282 283 282 283 283 282 282 282 282 281 282 282 282 282 282 282 282 282 283
293 292 291 291 290 290 291 291 292 292 291 291 292 292 292 292 291 290 290 289 288 288 288 288 287 287 287 286 286 286 286 286 286 286 286 286 287 287 288 287 287 290 287 290 289 287 286 286 287 286 287 289 288 286 285 285 285 286 285 285 285 284 285 285 285 284 284 284 283 282 282 283 283 282 282 282 282 282 282 283 284 283 283 282 282 282 282
291 290 290 291 290 291 292 291 291 291 291 290 292 292 292 292 291 290 289 289 288 288 288 287 286 287 286 286 286 286 285 286 286 285 285 285 287 288 289 287 287 287 287 287 288 287 287 286 286 287 286 287 287 286 286 285 286 286 286 286 286 284 285 286 284 284 284 284 283 283 284 283 283 282 283 282 282 281 281 282 283 283 282 282 281 282 282
291 290 290 291 290 290 291 291 291 291 291 291 291 291 291 290 290 290 289 289 288 287 287 287 287 287 287 287 287 287 287 287 287 287 285 283 284 287 289 288 289 286 287 287 287 287 286 287 288 287 286 286 287 286 287 286 286 284 285 285 285 283 283 284 284 285 285 285 285 283 284 283 283 283 283 283 283 284 283 283 283 283 282 283 281 282 282
291 291 290 288 290 290 291 291 291 291 290 290 290 290 290 290 290 289 289 289 288 288 288 288 288 288 288 288 287 287 287 287 287 288 289 288 288 288 288 288 287 287 287 287 287 288 287 287 287 286 286 286 286 287 286 286 285 285 285 286 285 284 284 284 285 285 284 285 284 283 284 283 282 283 284 284 284 284 283 284 284 282 283 284 284 284 283
291 290 291 291 291 291 291 291 290 290 290 289 288 288 288 289 289 289 289 289 289 289 288 289 289 289 289 289 288 287 286 285 287 288 288 288 288 289 287 288 288 287 287 287 288 289 288 288 287 286 286 286 286 288 287 287 286 285 284 284 284 284 283 284 284 286 285 285 285 284 285 284 283 282 283 284 283 283 284 283 284 283 282 283 283 283 283
291 291 291 291 291 291 291 291 290 290 289 289 289 289 288 289 289 289 289 289 289 289 289 289 289 290 290 290 290 290 290 288 286 287 288 288 289 289 287 288 288 287 287 287 288 287 287 287 287 286 286 286 287 287 286 286 285 285 285 285 285 285 286 284 283 283 284 284 285 285 283 284 283 282 282 283 284 284 283 284 284 283 283 283 283 283 284
292 292 292 291 291 291 291 291 290 289 289 290 290 289 289 289 289 289 289 289 289 289 289 289 289 290 290 290 290 291 290 290 289 288 290 290 289 289 290 289 288 287 287 288 290 288 287 286 286 286 286 285 286 286 286 285 286 284 284 285 285 284 284 284 283 283 283 283 284 284 283 283 283 282 282 283 283 284 284 283 284 284 284 283 283 283 283
291 291 291 290 291 291 291 290 289 290 290 290 290 290 290 289 287 287 288 289 289 289 289 289 289 290 290 290 290 291 291 291 291 291 290 290 291 291 290 289 288 287 287 289 290 287 286 285 285 286 286 286 287 286 287 286 287 286 285 285 285 284 283 285 285 285 284 284 284 283 283 282 282 283 283 282 282 284 284 284 284 285 285 284 284 284 284
291 291 291 290 291 292 292 292 291 291 290 291 291 291 290 289 289 288 288 289 289 289 289 289 289 289 289 290 290 291 291 292 292 290 290 291 291 290 289 289 289 288 288 288 288 288 286 285 285 285 286 286 285 286 287 287 286 286 286 286 286 285 284 285 284 284 284 284 284 284 285 284 282 282 282 283 283 283 283 283 284 284 284 284 285 284 284
292 291 291 291 291 292 292 292 292 291 291 291 291 291 290 290 289 288 288 287 290 289 289 289 288 289 288 289 290 290 290 292 291 291 289 289 290 289 289 288 287 287 288 288 288 287 286 285 285 285 285 286 285 286 286 286 286 286 285 285 285 284 284 285 284 284 284 284 284 284 284 283 282 283 283 282 283 283 283 284 284 285 284 285 284 284 284
Wind_Speed
2 3 3 5 4 4 2 3 3 4 4 2 6 3 7 11 9 10 15 16 19 16 16 17 17 18 18 17 15 14 14 12 11 12 12 12 12 11 11 9 10 10 9 7 7 6 5 5 7 9 10 9 8 8 7 7 8 7 7 8 8 7 8 8 8 7 6 6 5 5 5 6 6 7 6 6 6 7 7 8 8 9 9 10 11 11 11
7 8 5 7 11 4 8 10 9 3 3 5 5 6 13 7 9 19 22 16 18 17 18 16 15 14 16 14 13 13 13 14 13 12 13 13 11 11 11 10 10 8 8 7 6 5 4 5 8 10 9 9 8 8 7 8 8 6 7 7 7 7 7 6 5 5 5 5 6 5 6 6 5 6 7 6 6 6 7 8 8 8 9 9 10 12 13
4 7 6 8 9 8 6 8 12 13 8 6 3 8 7 15 12 14 18 14 10 3 10 14 14 14 14 14 15 15 14 13 13 13 13 13 12 11 10 9 9 7 6 6 6 5 5 7 9 9 9 8 7 7 7 8 8 6 7 8 7 7 8 7 7 6 5 5 4 6 6 6 5 5 7 7 7 6 6 7 8 9 9 10 10 10 13
3 4 6 5 9 11 10 8 13 14 9 5 1 6 2 8 14 17 16 13 6 8 13 13 14 15 18 18 16 14 12 12 14 15 14 13 12 11 10 9 7 6 7 7 7 6 6 8 9 9 8 7 8 7 7 7 7 6 8 8 8 8 8 8 7 7 7 7 8 8 7 7 6 5 4 6 7 7 7 7 8 8 10 9 9 9 10
2 5 1 1 6 5 4 7 9 9 3 1 3 5 6 11 26 16 14 13 13 18 19 19 16 17 16 16 16 14 12 13 15 15 14 13 12 11 8 7 7 7 7 6 6 6 7 10 10 8 8 8 7 6 7 5 6 7 8 8 8 9 8 8 8 7 7 8 8 9 9 8 7 5 5 5 6 7 8 6 6 8 9 9 9 9 10
3 7 3 2 4 3 2 4 7 3 1 2 8 5 6 6 2 7 9 17 16 16 17 21 20 20 17 15 11 13 17 15 13 12 13 12 11 9 8 8 9 7 6 6 6 7 8 9 9 7 8 8 6 6 7 6 7 6 7 7 8 8 7 7 7 8 8 9 9 9 9 9 8 8 7 7 6 5 5 5 7 7 8 10 9 9 10
1 3 3 4 2 3 2 4 4 10 11 10 18 14 11 8 13 20 20 18 16 14 11 13 11 12 12 10 13 10 9 11 14 15 13 12 10 10 10 9 8 7 7 7 8 9 9 8 7 8 7 7 6 7 6 8 7 7 7 8 9 8 8 8 8 8 8 9 9 9 9 8 8 9 8 8 8 7 6 6 6 7 7 8 9 9 9
2 4 2 4 1 2 1 2 2 2 3 2 16 15 11 6 10 13 17 17 17 16 15 13 10 11 13 12 9 9 10 11 13 14 12 11 11 11 9 10 8 8 8 9 9 7 7 9 7 6 6 4 6 7 6 8 8 8 9 10 9 8 8 8 8 8 8 9 9 8 9 8 9 9 8 8 8 7 7 7 6 5 6 5 8 9 9
5 1 4 2 0 0 3 1 1 1 2 3 3 8 2 3 8 14 16 16 17 17 15 16 14 13 14 13 8 6 11 11 10 11 10 11 11 10 8 9 9 8 8 9 8 9 9 9 8 6 5 4 5 6 8 8 8 8 9 9 9 8 8 8 8 8 8 8 8 8 8 8 9 9 9 9 8 7 7 7 7 8 8 7 6 7 10
4 7 4 2 1 1 4 6 4 6 3 1 6 8 5 6 2 9 18 18 19 19 17 17 17 16 16 11 7 5 9 11 12 10 10 11 10 9 8 7 8 8 7 8 8 11 10 9 7 6 6 7 8 9 10 9 9 8 8 9 8 8 7 7 7 7 7 7 8 8 8 9 8 8 7 7 7 7 7 7 8 7 6 7 7 7 9
3 2 5 3 3 3 4 9 6 5 3 10 8 7 2 2 3 8 16 19 18 20 22 20 20 15 15 11 9 7 9 12 11 13 11 10 10 9 10 10 9 8 8 9 9 9 10 10 7 7 8 9 11 10 9 8 7 7 7 7 7 7 6 6 6 6 6 6 7 7 8 8 7 8 7 7 6 6 7 6 7 6 7 7 7 8 8
1 4 3 3 1 1 4 5 3 5 6 3 3 1 6 9 9 10 14 20 19 17 18 18 16 17 18 14 11 9 11 13 12 11 12 12 10 9 7 6 8 8 7 9 8 9 9 7 7 8 8 9 9 9 7 6 7 7 7 6 6 6 5 5 5 6 5 6 6 7 7 7 7 7 6 7 8 7 7 6 7 7 6 7 8 8 8
4 6 1 2 2 3 1 4 5 8 6 5 4 7 5 14 14 13 14 16 17 17 16 13 10 3 3 14 15 12 13 14 12 10 9 10 10 10 7 7 8 8 8 9 9 8 7 7 7 6 7 9 8 7 7 7 6 5 5 6 7 6 5 5 5 5 5 6 7 6 6 6 5 6 6 6 7 7 7 7 7 8 9 7 8 8 8
5 2 5 2 2 3 1 0 7 7 5 3 7 4 6 18 17 13 14 15 14 15 13 8 7 12 15 14 13 15 14 14 13 12 12 10 8 7 7 8 8 8 8 8 7 6 6 7 6 6 7 8 6 7 7 7 6 6 7 7 6 6 6 5 4 5 5 6 6 6 5 6 6 7 6 6 6 6 6 6 8 9 8 8 8 8 8
3 3 4 3 4 2 2 7 3 0 2 4 3 7 8 14 19 15 13 12 12 12 12 13 15 17 15 14 14 14 14 15 14 12 11 10 9 9 9 8 7 9 9 10 9 8 6 6 6 5 7 7 6 5 7 5 5 6 6 6 6 5 5 5 5 5 5 6 5 5 5 6 6 6 5 6 6 6 6 7 8 9 9 8 8 9 9
5 2 3 3 1 2 1 5 6 4 3 7 10 13 12 7 13 16 11 10 10 10 14 17 18 16 16 13 14 13 13 12 11 10 9 9 9 10 10 9 8 9 10 10 9 7 6 6 6 6 7 6 5 6 5 4 5 6 6 6 5 5 5 5 5 5 5 5 5 4 5 5 5 5 6 6 6 6 6 6 7 8 8 8 8 9 10
1 3 2 1 3 1 2 3 3 3 3 8 10 11 18 17 11 11 13 13 12 13 17 18 18 15 15 15 13 14 13 13 12 11 10 9 10 11 11 10 9 9 11 11 9 7 6 6 6 6 5 6 5 5 4 5 6 6 6 6 5 5 5 5 5 5 5 5 4 4 4 4 5 5 5 5 7 6 6 7 7 8 8 7 8 8 9
6 8 5 3 3 5 8 7 5 10 9 6 9 12 12 7 12 13 13 13 14 15 17 19 15 15 14 16 13 12 12 12 11 9 9 9 9 9 9 8 9 8 8 8 9 8 5 6 6 4 4 6 6 5 3 4 5 5 6 6 5 4 4 5 5 5 5 4 4 3 3 3 4 3 4 5 6 6 6 6 6 7 7 7 7 8 8
2 3 2 4 5 4 8 11 8 8 6 8 9 9 9 11 11 11 12 12 14 16 16 18 16 16 16 15 14 13 12 11 11 10 9 9 10 10 10 8 8 8 7 8 9 9 7 4 5 4 4 3 4 2 2 2 3 4 6 6 5 4 4 4 4 4 5 4 4 3 3 3 4 4 3 4 4 5 5 6 6 6 6 7 7 7 8
3 5 4 5 5 5 4 7 11 10 9 9 7 8 9 11 11 12 13 14 15 14 15 17 19 16 14 17 15 13 12 11 9 9 11 12 11 9 8 8 9 8 9 8 9 10 8 6 5 5 5 5 4 4 3 4 4 6 6 6 6 4 4 4 3 4 4 5 5 3 3 2 3 2 2 2 4 3 5 5 6 7 6 7 7 6 7
8 10 7 9 11 10 7 6 7 8 10 13 12 13 14 14 15 15 12 12 13 13 14 15 18 17 14 14 16 14 12 10 9 10 11 11 10 9 10 9 10 9 8 9 9 9 8 6 6 6 6 5 5 6 4 4 6 7 7 6 5 4 4 4 3 2 3 2 3 3 2 1 1 0 0 1 1 1 0 1 1 3 6 6 5 4 3
8 7 10 12 10 5 4 6 10 11 11 14 15 14 14 15 15 15 16 13 12 12 14 14 16 19 15 12 12 13 11 12 12 12 12 11 10 9 8 8 8 8 8 8 7 6 5 6 7 6 5 5 5 6 5 5 7 8 6 6 5 4 4 4 4 4 3 2 2 2 2 1 1 1 2 3 3 0 0 2 3 4 3 2 4 4 6
7 6 7 2 10 10 7 9 9 12 11 14 15 15 14 14 13 15 17 17 15 14 13 12 14 15 17 15 12 12 11 11 11 11 12 11 9 9 9 9 8 9 7 6 7 7 6 5 5 4 4 4 5 5 5 6 7 7 6 6 4 4 4 5 4 5 4 3 2 1 1 0 0 1 2 3 4 3 5 4 4 6 6 7 7 6 4
8 8 7 9 10 11 9 11 11 11 11 13 13 13 13 13 14 14 15 15 17 15 13 10 10 13 13 13 14 13 11 11 12 12 10 10 9 10 10 10 10 10 8 8 8 6 5 6 5 5 5 4 5 5 6 6 7 7 6 7 5 3 3 3 5 4 3 3 1 1 1 0 0 3 5 5 6 7 6 5 5 3 5 7 8 8 9
9 7 8 9 13 11 10 10 10 10 11 14 12 13 14 14 14 14 15 14 13 15 14 13 10 10 12 10 11 13 13 12 10 11 10 10 10 10 9 10 10 9 8 7 6 6 6 7 6 5 6 5 4 4 4 5 6 7 6 6 5 4 4 4 4 5 5 3 2 3 3 3 1 2 5 4 4 4 7 8 6 3 3 5 6 7 8
15 12 11 11 11 11 9 11 10 10 9 12 12 11 12 13 14 13 14 13 12 12 14 14 13 9 9 11 11 12 11 11 11 10 9 9 9 9 9 10 8 7 7 6 6 6 6 7 7 6 5 4 3 3 3 4 6 6 5 5 5 4 4 5 5 4 4 4 3 3 2 3 3 3 3 4 3 3 5 7 7 7 7 7 5 4 5
12 14 16 14 11 8 9 11 8 10 12 12 13 12 12 13 14 12 11 11 12 11 11 12 12 12 10 9 11 11 13 11 10 10 9 10 9 9 8 8 9 8 8 7 6 6 7 6 7 7 5 3 3 2 1 3 6 5 5 5 4 4 5 5 6 4 4 4 4 3 3 3 3 3 3 3 3 3 3 4 4 4 4 5 6 3 2
11 10 12 15 12 9 8 12 11 11 12 13 13 13 13 12 12 13 13 12 10 8 8 9 11 12 12 9 11 11 10 12 11 10 11 10 7 7 8 8 8 7 7 7 5 5 5 5 6 7 5 3 4 4 3 4 5 5 5 5 4 4 4 4 6 4 4 4 4 4 4 3 3 3 3 4 4 2 1 1 2 4 4 3 2 6 6
5 6 6 9 11 10 11 12 12 12 12 11 11 10 12 14 13 13 12 10 11 11 11 9 7 7 9 10 11 10 11 10 10 11 10 8 8 8 8 8 7 6 6 6 5 5 5 5 6 6 4 3 4 4 4 5 4 4 4 4 5 4 3 2 4 5 3 2 2 3 3 2 2 3 3 3 3 3 2 1 1 1 2 3 4 5 5
8 8 9 10 12 12 14 12 12 12 12 12 12 11 10 13 13 11 11 11 12 13 11 10 10 8 8 8 9 10 12 12 12 10 9 8 8 8 7 6 7 5 5 5 5 5 6 5 6 6 4 4 4 3 4 4 4 1 2 5 4 5 2 1 5 5 4 3 2 2 2 3 3 3 3 3 3 2 2 1 0 1 2 3 3 2 3
10 10 12 11 12 11 11 12 11 12 12 11 11 11 11 10 11 11 11 12 12 11 9 10 10 10 9 9 8 9 9 10 10 9 8 7 7 7 7 7 8 7 7 6 5 5 5 5 5 5 3 4 4 4 4 4 3 2 1 2 4 7 8 8 7 7 6 4 2 2 2 2 3 3 3 3 1 2 1 1 0 1 2 1 2 4 3
13 13 14 12 11 11 11 10 11 13 12 12 12 13 13 13 13 13 12 11 10 10 10 11 11 10 9 9 9 10 10 9 9 8 7 7 6 5 6 7 7 7 6 5 5 5 5 5 6 4 3 5 4 4 4 4 3 2 0 2 3 5 6 8 6 5 4 4 4 3 1 2 3 3 3 3 1 0 1 2 0 1 2 1 2 3 2
14 13 12 12 12 12 11 11 13 13 13 13 11 10 9 8 8 10 10 10 9 9 10 11 9 9 10 11 11 10 9 8 8 8 7 6 5 5 5 6 7 7 6 6 6 6 7 7 5 4 5 5 5 4 5 4 3 1 1 1 1 3 5 5 6 5 3 2 2 1 1 2 2 4 3 3 2 2 1 1 1 0 1 3 3 4 1
12 10 11 11 12 14 16 14 11 11 10 9 9 10 10 9 9 8 8 8 11 11 11 10 10 10 10 11 10 9 9 9 8 8 7 6 6 6 6 7 7 6 5 5 5 5 5 5 5 4 5 5 6 5 4 4 3 3 3 3 3 4 6 4 5 5 4 2 1 0 1 4 4 3 3 3 3 2 1 0 0 0 1 3 3 4 4
7 6 7 8 8 8 8 10 10 11 11 12 11 10 10 10 9 8 8 10 11 10 10 10 9 9 10 10 10 9 9 9 8 8 7 7 7 7 5 7 6 6 5 4 5 5 5 5 5 5 4 4 5 5 5 4 4 6 4 5 5 5 6 4 4 5 5 3 3 3 4 4 2 2 3 3 2 1 1 0 1 0 1 3 3 3 4
9 9 8 8 8 8 8 8 8 10 10 11 11 11 11 9 8 9 10 9 7 8 9 10 10 10 10 11 10 9 9 8 7 7 7 8 8 5 6 9 7 6 5 4 4 5 5 5 7 8 6 5 4 4 4 4 4 4 5 6 6 5 5 5 4 3 3 4 4 3 3 4 3 2 2 2 2 1 1 1 1 1 0 1 2 2 2
9 10 8 8 8 10 10 9 9 10 10 10 9 9 9 8 9 7 7 8 9 9 10 10 10 11 11 10 10 8 8 8 7 7 8 7 6 6 7 7 7 7 6 7 6 4 5 5 8 9 6 4 4 4 4 7 5 4 5 5 5 6 4 4 4 4 2 3 3 2 0 2 4 3 3 3 3 2 2 3 2 1 0 1 2 1 2
9 10 9 9 9 10 9 8 7 8 8 7 5 6 8 8 8 8 9 9 9 10 10 11 11 10 8 7 8 9 7 6 6 6 6 6 6 7 6 8 8 6 7 8 6 5 5 7 9 7 4 4 3 3 4 7 6 4 4 4 3 4 4 4 2 2 3 2 1 3 3 3 3 4 3 4 3 3 3 4 3 3 2 2 3 3 2
8 8 8 8 8 8 7 7 7 7 8 9 8 8 7 10 9 9 9 9 8 10 10 9 9 9 9 9 9 8 8 7 6 6 6 5 5 8 8 8 9 10 9 5 5 6 7 7 5 6 4 4 4 3 3 6 6 4 4 2 1 3 5 4 4 3 2 2 3 2 2 1 1 1 3 3 3 4 4 5 4 4 4 3 3 4 5
7 8 9 8 7 7 7 7 7 7 7 9 10 9 9 11 10 10 9 9 6 10 12 10 10 10 9 9 9 9 8 7 6 6 6 5 5 5 2 2 4 5 4 4 5 5 6 9 6 5 5 4 4 3 3 4 6 4 4 2 2 2 4 4 4 3 1 2 3 4 3 3 1 0 1 2 3 4 4 4 4 3 3 3 4 3 4
7 7 7 7 7 6 7 7 7 7 8 9 9 10 10 11 11 12 10 10 7 8 12 12 11 10 10 10 10 9 7 6 5 6 5 5 5 5 6 7 5 4 6 6 6 6 7 7 6 6 6 5 4 5 3 3 3 4 3 2 3 3 3 3 3 4 3 3 3 5 4 5 4 3 3 3 3 3 3 4 4 3 2 3 3 3 3
6 7 7 7 6 7 7 8 8 8 9 10 11 11 11 12 13 13 11 11 9 8 10 10 13 12 9 9 8 7 6 6 5 5 5 8 8 7 5 7 4 4 9 12 10 8 6 6 6 6 6 6 6 7 7 4 3 4 2 1 3 3 4 4 4 4 4 4 3 4 4 5 6 5 4 4 4 4 4 3 4 3 2 2 3 3 3
6 6 6 7 7 7 9 10 12 12 11 11 12 11 11 11 11 10 11 11 11 8 9 8 10 11 10 8 8 8 8 6 6 5 4 3 4 6 8 6 3 3 10 10 8 7 7 7 6 5 7 7 7 9 8 5 4 4 4 3 2 3 4 5 5 4 5 5 5 4 6 6 7 7 6 5 5 5 5 6 5 4 3 3 4 3 3
6 6 6 8 7 8 10 10 11 11 10 8 9 11 11 9 10 11 10 10 9 9 9 8 8 8 9 9 9 8 8 7 7 7 7 4 3 4 4 4 4 4 8 6 7 7 7 7 7 8 9 11 12 11 7 6 5 5 4 3 2 3 4 5 5 4 5 5 6 6 7 7 7 7 7 7 5 5 4 5 6 6 5 4 4 4 3
7 6 7 10 8 8 10 10 12 12 9 8 9 9 9 10 10 11 11 10 10 9 8 9 9 9 8 8 9 9 9 8 8 8 8 7 6 7 5 6 5 4 7 8 6 7 7 7 8 10 9 12 12 11 6 5 6 6 5 4 3 2 3 5 5 5 5 6 7 7 7 7 8 7 7 7 7 7 7 7 7 7 7 6 5 5 5
8 8 8 10 10 9 9 11 10 9 10 10 9 9 9 10 10 9 10 10 10 9 9 9 9 9 9 9 7 6 5 6 6 7 8 9 10 8 5 7 6 6 9 10 8 7 8 10 12 11 12 12 12 9 7 7 7 5 5 4 5 4 3 4 4 6 7 7 6 4 6 7 7 7 7 7 7 7 7 5 6 6 5 6 6 6 6
9 7 9 9 8 9 9 9 8 9 9 10 10 8 6 8 9 9 8 10 10 9 8 8 8 9 9 10 9 8 7 6 6 6 6 6 6 6 7 8 9 10 9 8 8 9 8 9 10 13 13 13 11 8 8 7 7 6 5 4 4 4 4 4 4 6 6 7 7 6 6 6 6 5 6 6 7 7 7 6 6 7 6 5 5 4 5
9 9 9 8 9 8 9 9 9 9 9 10 9 9 8 7 9 8 8 8 8 8 8 8 8 8 9 9 9 9 10 10 8 8 7 7 7 7 7 7 7 9 11 10 12 11 12 12 13 13 13 12 9 7 6 5 5 5 5 5 5 6 6 4 5 7 7 7 7 6 7 6 6 6 6 7 7 7 7 7 7 6 7 6 6 7 6
9 9 9 8 9 9 10 10 9 9 8 8 9 9 9 9 8 8 8 8 8 7 8 8 9 9 9 10 10 8 8 8 10 10 9 8 8 8 9 9 10 10 8 8 9 8 10 12 12 13 13 10 8 8 6 6 5 4 4 4 5 5 4 3 3 3 3 4 4 5 4 4 4 4 5 6 6 7 7 7 7 7 7 7 6 6 6
8 9 9 8 9 9 9 9 8 8 7 8 9 9 9 8 8 7 7 8 9 9 8 8 8 8 8 8 8 8 8 8 8 8 5 8 8 9 8 7 7 10 11 9 8 8 7 11 11 11 10 8 8 8 7 7 6 6 5 5 5 5 5 4 5 6 6 6 6 5 5 5 4 5 4 6 6 7 7 7 7 8 10 8 7 7 7
8 9 8 8 8 9 9 10 10 8 7 8 8 9 9 9 9 9 8 8 7 8 9 8 8 8 8 8 8 8 8 8 9 9 8 7 8 9 10 8 8 9 10 9 8 8 7 7 6 7 7 7 7 7 6 6 6 6 6 6 6 5 5 5 6 7 6 6 5 6 6 6 5 5 6 6 5 5 5 6 6 6 7 7 8 8 7
8 8 7 8 8 8 9 9 8 8 8 8 8 9 9 9 8 8 8 9 9 8 9 9 9 8 7 8 8 8 8 9 9 9 8 8 8 8 8 7 7 7 9 8 8 7 7 6 6 7 8 7 7 7 7 7 7 6 6 5 6 6 6 7 7 7 7 7 7 6 7 6 5 6 7 7 6 6 7 7 7 7 7 7 7 7 6
Wind_Direction
7 2 57 63 58 50 93 120 156 166 120 131 145 207 154 153 147 165 170 162 143 162 156 153 153 149 146 145 142 138 137 132 131 131 121 115 113 109 102 99 96 94 95 96 94 97 108 94 78 75 83 84 82 76 74 71 68 65 68 69 66 60 58 60 61 60 58 55 52 47 46 48 47 42 36 32 31 32 33 31 28 24 19 14 11 10 10
18 7 14 79 88 76 53 37 33 37 136 176 145 160 165 168 151 148 159 168 158 158 155 150 144 136 129 129 129 131 135 138 135 127 119 117 114 109 108 105 100 99 100 102 103 95 73 75 79 90 91 88 86 86 80 74 71 65 67 64 63 58 55 53 51 52 54 54 50 45 43 46 46 43 37 30 27 27 30 30 26 24 21 18 17 13 9
5 0 22 72 94 97 80 31 32 32 20 62 99 120 80 77 77 126 129 124 111 61 120 123 125 126 124 128 138 142 140 139 131 123 123 119 116 115 110 107 102 105 97 80 71 70 72 75 85 94 97 95 91 84 82 78 75 70 70 66 59 55 50 41 38 35 37 37 36 39 37 36 39 43 39 35 30 27 26 26 24 22 20 19 18 14 12
330 337 36 82 93 86 75 34 15 7 7 80 10 124 213 122 133 125 115 114 123 128 123 118 126 134 137 141 143 141 141 132 127 127 127 123 121 117 113 107 100 84 80 85 84 81 74 80 93 101 100 97 90 87 84 83 83 78 73 69 64 58 52 46 43 42 40 41 39 35 32 28 26 30 34 37 37 31 27 25 23 22 24 20 16 14 12
295 270 273 169 94 56 20 355 341 333 323 156 105 43 34 144 134 127 144 184 155 149 145 138 145 142 143 143 145 137 129 130 132 133 129 124 122 115 109 99 96 101 100 98 94 82 74 91 103 106 107 100 95 94 89 90 90 79 76 73 69 65 56 51 44 39 38 39 38 35 31 29 22 20 22 30 34 31 29 23 21 27 23 18 18 12 13
246 294 336 349 70 169 217 315 316 241 254 281 96 54 55 12 31 171 158 140 134 141 146 147 153 151 153 148 149 144 144 139 132 126 124 123 118 110 105 109 110 112 106 92 83 81 87 98 105 108 104 104 104 98 94 85 82 80 78 69 65 59 51 45 42 41 40 41 41 37 35 33 32 28 23 21 16 15 17 19 27 27 23 21 17 14 11
221 323 20 57 201 224 300 300 10 74 78 95 87 67 44 70 94 100 104 117 129 131 127 124 124 122 122 126 126 117 118 126 131 132 127 123 118 117 117 113 114 114 112 101 86 75 81 96 101 101 97 102 103 91 86 82 72 73 64 64 60 60 59 52 50 46 45 45 44 40 37 35 32 32 28 22 18 10 10 8 16 18 18 20 16 12 7
44 33 18 171 240 256 280 312 291 62 107 55 81 54 21 60 102 112 116 126 124 125 121 111 106 107 98 81 65 97 108 122 130 126 128 126 122 122 127 125 125 121 111 104 95 91 91 89 90 96 103 103 99 93 81 79 77 73 74 72 73 70 64 58 55 51 51 49 47 43 40 34 32 28 26 23 19 9 10 7 6 9 14 20 18 13 6
119 140 50 58 351 203 32 1 286 105 116 47 1 117 50 3 125 129 124 120 120 117 118 119 120 114 96 85 62 72 117 120 114 117 122 122 122 125 128 126 126 124 117 104 101 94 88 89 89 89 92 89 87 83 79 79 80 79 79 79 78 74 69 63 58 55 54 54 50 46 38 37 31 26 22 16 15 8 11 8 9 13 12 8 6 10 10
117 133 93 38 27 224 234 226 219 187 178 210 109 108 90 328 27 134 130 131 130 127 128 130 129 121 110 112 118 142 127 116 114 107 109 113 119 124 125 119 118 115 110 101 96 98 95 88 91 93 94 94 92 89 90 90 87 86 85 84 84 80 77 70 63 58 54 53 52 43 38 33 25 20 15 15 14 5 16 6 10 5 7 9 7 8 11
92 75 126 171 151 242 195 202 212 201 153 136 125 68 128 265 164 155 139 135 141 143 143 143 141 139 136 146 152 178 134 120 118 119 120 121 124 128 128 128 125 119 115 111 108 100 96 94 93 93 93 91 90 93 93 94 94 90 86 84 83 87 84 79 70 62 55 52 48 44 40 28 23 20 15 15 5 9 13 12 11 3 9 13 9 9 10
115 127 92 161 198 173 232 186 163 170 143 113 50 156 230 181 175 158 153 145 148 149 149 148 152 149 146 158 167 164 136 123 123 126 130 131 130 129 127 120 123 121 115 103 97 99 103 111 107 96 94 92 93 95 98 101 97 96 93 93 90 87 84 78 76 63 58 56 49 48 41 31 24 21 11 18 15 16 13 14 12 12 13 15 14 8 2
109 97 83 30 327 288 243 186 136 145 136 88 124 205 222 158 160 164 157 153 148 147 150 158 146 352 85 132 138 140 128 119 119 121 125 130 131 129 124 123 122 119 118 117 119 120 119 111 101 99 95 93 92 97 100 96 100 109 104 90 83 86 87 84 80 74 63 62 58 48 44 40 28 24 17 17 13 19 18 15 23 23 21 17 16 9 4
124 147 107 174 223 236 155 293 139 153 116 129 204 242 145 146 151 159 155 154 153 149 142 98 92 114 119 125 129 131 129 127 130 134 135 131 126 117 118 119 114 109 106 108 111 109 110 109 109 101 100 99 100 98 94 100 115 109 99 97 92 89 89 90 88 79 74 62 57 57 45 39 36 28 14 15 16 15 16 23 29 28 23 22 18 12 8
61 43 83 103 162 221 132 126 76 162 138 229 178 122 129 144 144 149 153 153 153 139 117 116 118 123 128 133 133 128 128 130 135 136 134 134 128 124 119 114 116 115 113 122 128 130 125 117 113 109 101 100 100 102 105 124 115 99 101 101 99 99 95 91 88 84 78 73 61 55 51 44 44 34 14 19 12 12 18 23 30 31 26 22 21 17 13
141 140 158 195 255 189 248 153 176 199 209 148 146 131 125 143 146 146 146 156 137 127 124 126 128 130 131 132 130 126 125 129 128 128 130 127 121 121 123 128 127 110 111 123 129 132 131 130 124 120 114 116 117 115 128 145 106 105 104 107 107 103 99 92 84 80 79 74 67 57 57 54 44 40 26 20 18 14 11 20 25 30 25 22 23 22 16
141 185 185 333 355 336 322 135 131 100 104 133 145 144 147 148 159 147 146 146 134 136 132 130 132 136 138 134 134 134 137 138 138 136 135 127 124 125 129 130 118 110 122 131 130 128 134 137 136 129 126 123 127 122 149 119 115 114 117 114 113 110 101 92 88 81 70 72 73 65 57 59 56 38 33 26 31 9 17 20 23 28 18 19 25 18 15
97 54 51 76 38 70 72 56 92 116 114 102 119 128 128 138 141 151 146 139 138 138 138 132 137 136 140 132 133 133 138 140 137 130 121 116 122 126 124 118 109 113 111 106 107 112 128 144 134 116 124 133 132 158 164 128 132 123 116 115 116 121 109 99 94 90 83 71 64 65 61 61 67 47 44 30 39 16 20 24 23 24 14 16 19 16 17
73 78 351 61 85 68 87 93 71 69 80 112 117 117 120 132 133 125 128 134 136 138 140 135 137 139 140 134 136 141 142 143 138 131 125 127 132 133 129 123 113 106 109 105 109 121 131 120 97 103 95 102 142 155 136 92 65 79 95 112 123 126 125 110 92 89 98 93 80 55 43 48 48 42 35 33 33 28 26 26 23 22 18 17 13 11 14
82 132 124 90 77 69 73 94 107 100 96 87 86 102 112 117 119 122 129 132 134 140 141 140 138 141 143 140 142 143 145 142 136 132 132 135 134 131 123 115 111 112 109 111 114 116 123 132 129 123 122 132 143 130 113 101 94 81 84 109 131 149 149 126 114 110 101 95 92 65 34 44 53 28 11 31 46 33 32 18 26 20 19 16 14 6 359
86 91 100 104 80 64 57 74 74 101 113 110 108 112 117 121 124 127 128 132 136 139 140 143 138 138 146 144 143 143 142 139 136 135 134 134 132 125 114 117 121 124 117 110 114 123 132 130 119 116 119 123 119 119 121 110 96 88 92 105 115 119 117 108 110 103 107 108 107 109 79 27 10 206 266 306 53 353 274 216 17 29 13 3 4 354 343
161 168 168 145 125 138 114 107 118 114 114 115 118 120 123 128 131 132 130 129 131 133 139 144 143 140 141 143 143 140 140 140 136 136 133 133 127 116 113 115 116 113 113 115 112 108 113 126 129 132 137 133 123 122 116 109 101 98 95 85 84 96 120 121 135 132 135 129 145 136 133 101 21 0 268 238 220 202 312 308 291 287 282 338 317 336 2
182 157 155 56 100 104 120 129 125 120 120 121 125 129 131 131 132 134 134 134 133 137 140 144 142 143 144 146 142 134 136 137 137 134 131 127 117 116 116 110 106 105 104 106 105 98 99 98 100 107 105 114 121 123 115 112 103 105 94 82 72 45 70 94 117 134 148 183 219 175 150 135 333 3 340 312 293 260 236 261 285 305 324 327 344 2 31
62 102 121 126 122 130 133 130 126 126 126 120 121 125 127 130 133 133 131 136 137 135 136 136 143 143 141 140 136 133 132 134 132 131 125 116 117 121 116 116 115 111 111 106 109 119 111 102 103 101 102 102 110 115 115 113 110 104 103 101 99 94 89 86 107 116 135 153 167 113 84 184 233 73 64 46 356 334 329 304 288 293 304 322 333 347 8
139 128 110 103 105 105 112 116 116 119 127 122 124 130 132 132 132 134 133 135 137 136 137 138 141 141 134 129 130 135 137 136 132 128 121 118 122 120 124 120 117 118 121 121 125 120 111 108 104 111 116 139 138 131 119 106 98 97 104 108 108 96 85 78 91 126 127 130 139 130 119 99 70 74 78 83 64 17 343 353 4 354 319 301 320 344 2
114 111 103 95 97 108 110 102 101 115 117 116 118 122 125 127 130 133 133 135 135 138 137 139 134 129 129 129 131 132 127 128 128 121 117 120 120 121 124 126 128 123 123 120 117 113 109 107 108 108 117 150 150 143 135 115 104 112 110 111 125 121 113 113 98 102 129 136 127 117 118 110 132 114 112 111 126 93 47 20 2 5 19 16 355 321 10
105 113 107 95 98 114 128 125 133 128 118 115 119 122 124 126 127 125 125 128 134 139 140 137 134 133 128 129 129 130 129 128 113 113 120 124 127 133 135 129 128 128 126 120 117 118 116 109 102 101 112 134 132 106 95 109 109 112 120 121 112 117 128 120 117 131 153 143 134 133 113 122 131 126 111 108 112 112 108 78 49 21 351 347 351 342 337
118 125 133 143 153 146 128 116 117 117 117 119 124 127 128 126 126 129 130 131 130 129 126 131 134 135 130 128 124 121 118 116 119 125 124 130 134 133 129 127 126 125 122 122 128 122 110 109 104 97 102 131 137 148 137 109 110 120 125 127 124 127 130 126 116 120 144 154 145 132 137 153 159 151 146 111 94 118 145 43 56 45 11 1 331 343 10
84 74 63 98 114 119 116 113 114 116 118 118 121 125 132 133 135 136 137 137 140 136 136 133 116 119 129 132 127 126 121 120 124 129 133 137 136 134 133 130 127 121 120 124 127 121 111 101 92 90 99 145 147 163 151 124 121 131 121 108 93 75 72 73 96 96 103 140 138 142 137 142 120 103 84 87 94 97 79 79 357 323 13 344 11 3 3
101 99 103 108 115 121 123 126 130 130 128 133 134 136 140 140 140 141 138 142 146 145 140 128 124 127 124 122 124 128 132 135 135 134 136 141 140 134 124 114 99 91 98 113 130 124 112 110 102 102 92 68 71 87 100 92 95 88 145 120 109 110 97 59 78 90 96 95 101 76 74 77 72 99 83 62 70 101 127 143 234 0 28 4 13 41 37
113 118 118 121 123 126 130 133 135 136 138 142 143 141 143 145 140 139 144 144 144 138 133 132 129 128 126 129 130 126 127 128 131 134 139 141 134 126 126 126 125 140 150 161 163 135 124 120 113 109 110 91 74 80 111 119 117 98 79 86 94 65 71 85 96 107 116 122 121 93 50 48 55 55 85 89 47 55 75 65 29 304 299 320 350 335 340
119 123 126 132 135 134 134 138 142 145 152 151 153 154 156 155 154 150 147 146 142 139 135 130 133 137 137 135 132 130 127 127 128 132 137 134 130 135 138 138 142 147 151 154 150 136 122 113 112 142 130 94 89 88 106 111 102 98 331 46 78 100 104 109 105 110 120 135 149 131 138 67 51 104 76 92 138 225 129 93 55 276 281 299 343 312 300
130 134 139 147 143 142 143 152 151 154 156 158 157 149 142 142 143 145 142 134 130 135 135 136 137 139 140 135 129 126 125 126 128 129 130 132 134 145 146 138 138 142 148 156 151 144 134 132 154 165 121 104 90 77 88 107 111 127 204 215 80 94 125 119 128 109 89 76 74 76 67 73 69 87 132 168 185 182 149 120 152 312 293 264 264 280 300
155 161 155 156 154 155 156 155 156 151 148 143 139 139 137 141 145 139 129 130 136 138 140 141 143 143 136 128 125 124 123 118 123 137 147 144 148 148 147 136 137 141 146 142 128 131 134 147 152 146 130 121 120 115 111 113 124 122 100 96 101 122 111 123 120 106 90 68 97 124 97 80 63 83 122 169 167 147 141 131 180 174 327 346 328 290 312
126 126 140 142 136 138 145 147 149 147 143 139 140 142 143 144 144 135 130 137 143 145 138 136 137 133 127 125 127 130 130 138 150 150 159 153 154 156 149 121 111 107 110 127 135 150 160 155 144 131 126 129 133 136 137 129 119 106 108 119 131 132 141 139 118 113 126 159 160 116 86 87 95 144 158 156 168 150 170 270 313 0 45 355 332 342 4
129 130 133 134 135 135 135 137 137 138 138 141 144 146 148 147 135 132 140 141 132 129 132 132 132 129 129 131 134 138 141 145 150 152 156 159 160 159 136 127 130 127 130 145 171 157 160 155 159 145 139 139 133 137 124 116 99 104 112 119 133 146 146 139 137 130 140 133 112 125 141 137 117 93 109 114 96 80 6 315 353 299 290 283 291 333 4
137 139 141 139 140 142 141 140 143 141 143 144 144 141 141 139 140 136 123 122 132 135 133 133 133 136 143 146 145 143 142 148 153 157 161 161 155 144 135 133 139 145 146 153 209 197 166 159 159 139 135 139 148 151 142 111 98 96 89 103 128 132 135 143 159 136 133 133 154 154 269 76 73 79 74 92 84 57 38 22 5 25 275 287 306 321 12
147 140 143 141 145 143 143 142 135 130 124 119 122 135 142 139 132 130 131 134 138 137 136 139 142 142 138 134 136 144 152 153 153 152 149 156 154 138 137 143 159 154 158 189 191 183 182 165 157 139 147 152 181 185 155 129 127 103 97 102 134 143 140 152 175 195 185 160 165 149 147 131 121 103 101 98 110 104 72 64 60 58 8 346 344 337 347
132 130 132 135 132 135 136 130 128 127 133 136 142 142 139 135 135 132 131 140 144 134 129 129 127 130 138 144 151 151 158 164 159 147 147 154 149 145 170 175 180 180 187 190 156 185 177 165 166 151 165 190 188 206 181 149 142 108 94 108 136 163 148 162 174 198 259 211 128 150 122 76 42 157 125 122 116 91 78 73 71 63 48 29 18 35 44
138 140 142 135 135 139 139 140 140 145 142 140 140 143 147 140 141 134 134 134 148 138 134 137 139 141 150 152 154 165 173 167 162 153 153 145 129 139 160 264 228 222 237 192 179 178 183 173 165 165 186 211 205 181 193 182 130 115 112 104 111 215 155 146 138 127 164 258 138 151 131 136 97 288 156 127 102 93 90 87 74 69 76 69 73 73 71
136 132 133 128 131 133 136 136 152 157 147 142 141 146 149 144 140 135 143 145 153 145 142 147 147 153 159 163 165 170 170 168 165 166 157 127 131 149 167 210 242 193 192 193 198 186 180 181 179 178 200 202 213 200 160 206 184 142 133 146 149 198 189 171 150 131 153 218 156 169 170 147 143 182 167 143 125 118 107 101 102 96 112 113 101 93 93
142 130 131 132 137 143 145 149 148 155 151 144 144 148 149 144 145 149 151 145 148 155 151 155 155 159 166 164 159 157 163 174 173 168 169 162 169 159 176 232 242 212 194 181 193 183 177 190 192 188 193 194 202 186 173 178 183 131 127 160 156 176 210 180 187 178 179 166 165 165 157 157 155 174 184 166 143 139 131 117 104 102 105 149 156 166 156
136 133 143 145 142 143 143 151 152 154 144 142 147 149 151 146 141 139 143 146 150 158 157 159 159 152 152 154 154 161 175 176 178 181 185 212 194 172 173 218 257 218 186 181 177 176 181 194 194 201 200 191 195 183 176 171 166 163 165 168 155 149 203 212 212 187 168 165 179 174 158 167 164 166 178 182 172 170 156 143 140 153 172 175 178 183 191
145 139 146 143 146 151 144 146 144 141 134 142 149 146 144 143 143 144 147 148 153 157 154 153 157 158 158 159 158 167 176 179 186 184 169 200 266 270 235 226 247 203 179 189 179 181 185 193 195 200 201 203 193 180 173 178 178 181 181 166 140 159 201 222 239 200 192 190 177 174 175 178 176 178 175 179 187 198 190 167 164 166 176 183 180 180 194
154 151 160 146 147 143 141 141 146 150 143 140 145 143 146 148 151 151 150 153 157 161 158 158 162 165 164 166 172 180 181 184 181 165 164 184 200 242 232 210 203 182 190 189 201 194 193 195 201 196 199 202 190 177 180 176 185 185 177 161 146 165 183 204 226 233 228 211 202 185 170 179 187 184 184 186 186 184 187 181 181 178 168 173 168 170 186
164 164 155 136 142 150 155 153 155 136 124 135 144 149 153 154 154 157 158 157 160 165 170 167 166 170 170 173 179 177 177 183 189 189 191 182 189 215 206 192 200 198 196 189 200 205 207 204 196 195 200 202 191 178 184 190 197 182 176 183 171 164 198 233 234 234 231 235 231 197 184 186 190 196 191 188 191 192 196 191 184 185 181 175 181 181 186
164 157 148 148 154 155 154 148 142 130 124 132 144 161 169 161 157 162 167 166 162 165 166 170 173 177 176 173 169 169 179 197 231 226 211 215 216 221 213 208 208 202 186 191 201 207 205 200 201 201 200 204 196 193 192 189 189 183 184 197 198 186 183 194 213 224 224 227 220 206 208 196 193 201 206 193 188 196 195 188 188 193 197 190 186 180 180
154 155 152 151 151 154 146 144 142 140 145 156 161 163 171 170 163 165 165 164 164 165 169 175 181 185 186 186 187 184 180 175 194 237 217 209 213 215 220 215 215 197 194 199 204 212 204 198 198 199 203 200 199 209 207 209 207 196 183 185 198 206 203 203 208 213 221 220 203 196 194 203 206 193 188 192 201 203 200 191 190 190 196 192 189 189 187
157 156 154 151 146 148 151 157 155 155 161 164 159 167 171 169 165 161 166 169 169 172 181 186 188 192 194 193 191 195 198 186 178 205 212 197 205 212 223 225 222 202 191 198 204 210 208 205 200 198 198 194 200 203 206 208 210 201 190 197 213 221 212 184 176 160 178 201 195 191 180 173 183 178 195 204 204 204 196 198 198 190 194 201 203 200 197
158 149 150 151 152 156 158 157 162 168 155 155 168 168 168 160 160 179 172 173 178 182 185 190 194 195 196 197 200 202 195 199 214 221 200 193 203 212 216 212 204 195 198 202 204 203 203 202 202 199 192 195 200 199 200 201 207 206 210 213 222 225 218 184 175 184 193 184 184 187 194 199 207 219 207 192 193 191 195 198 199 205 202 196 199 204 204
157 160 162 159 160 162 163 164 170 165 157 162 164 167 164 168 177 180 180 171 165 175 192 199 202 201 199 202 202 204 204 205 211 213 208 207 203 211 212 205 197 193 196 198 197 195 189 191 194 191 193 194 195 201 205 210 215 224 219 215 219 221 211 198 191 196 201 197 197 204 210 214 200 196 209 217 216 216 212 208 208 206 204 208 209 209 208
161 159 157 155 156 162 168 170 166 163 166 162 155 159 171 175 172 183 189 186 173 172 180 181 206 220 208 205 202 203 202 204 208 210 204 204 205 212 207 195 187 188 188 191 196 192 188 187 180 186 190 195 200 205 213 217 222 230 229 222 223 224 212 199 191 196 203 202 199 207 215 217 208 205 208 206 202 198 201 205 210 211 211 214 215 213 209